Regional Weather Roundup
Issued by NWS Charleston, SC

Current Version | Previous Version | Graphics & Text | Print | Product List | Glossary On
Versions: 1 2 3 4 5 6 7 8 9 10 11 12 13 14 15 16 17 18 19 20 21 22 23 24 25 26 27 28 29 30 31 32 33 34 35 36 37 38 39 40 41 42 43 44 45 46 47 48 49 50
000
ASUS42 KCHS 010011
RWRCHS

REGIONAL WEATHER ROUNDUP
NATIONAL WEATHER SERVICE CHARLESTON SC
700 PM EST SAT JAN 31 2015

NOTE: "FAIR" INDICATES FEW OR NO CLOUDS BELOW 12,000 FEET WITH NO
SIGNIFICANT WEATHER AND/OR OBSTRUCTIONS TO VISIBILITY.

NOT ALL STATIONS ARE QUALITY CONTROLLED BY THE NATIONAL
WEATHER SERVICE. USE DATA WITH CAUTION...ESPECIALLY
DEWPOINT OBSERVATIONS.

SCZ027-030-031-034>040-042>050-010100-
...SOUTHEAST SOUTH CAROLINA...

CITY           SKY/WX    TMP DP  RH WIND       PRES   REMARKS
N CHARLESTON   PTCLDY    43  25  49 S3        30.37R
6HR MIN TEMP:  41; 6HR MAX TEMP:  56;

WATERFRONT PRK   N/A     45 N/A N/A CALM        N/A
MOUNT PLEASANT LGT RAIN  39  30  70 CALM      30.37R
PINOPOLIS        N/A     46  12  25 CALM      30.25S
MONCKS CORNER  FAIR      41  25  52 CALM      30.36R
SUMMERVILLE    NOT AVBL
BEAUFORT MCAS  CLEAR     46  31  55 S5        30.37R
6HR MIN TEMP:  46; 6HR MAX TEMP:  54;

BEAUFORT ARPT  FAIR      41  32  70 CALM      30.36R
HILTON HEAD IS CLEAR     39  32  75 CALM      30.38R
WALTERBORO     PTCLDY    45  21  39 S5        30.36R
ALLENDALE      FAIR      46  23  39 CALM      30.34R

...SOUTHERN MIDLANDS AND PEE DEE...

CITY           SKY/WX    TMP DP  RH WIND       PRES   REMARKS
GEORGETOWN     NOT AVBL
KINGSTREE      NOT AVBL
ORANGEBURG     MOCLDY    43  23  45 CALM      30.34R
6HR MIN TEMP:  43; 6HR MAX TEMP:  54;

BARNWELL       FAIR      46  25  42 CALM      30.34S
AIKEN          FAIR      45  27  49 S3        30.35S
MANNING        FAIR      41  25  52 CALM      30.35R
COLUMBIA       CLOUDY    48  24  39 CALM      30.33R
6HR MIN TEMP:  47; 6HR MAX TEMP:  56;

SUMTER         CLOUDY    42  21  42 S1        30.32R
6HR MIN TEMP:  42; 6HR MAX TEMP:  53;

FLORENCE       CLEAR     39  18  42 S5        30.33R WCI  36
6HR MIN TEMP:  39; 6HR MAX TEMP:  52;

MYRTLE BEACH   CLEAR     43  21  42 SW6       30.37R
N MYRTLE BEACH CLEAR     41  25  53 SW6       30.34R
6HR MIN TEMP:  40; 6HR MAX TEMP:  52;


$$

GAZ063-065-086>088-099>101-113>116-118-119-134>141-150-010100-
...SOUTHEAST GEORGIA...

CITY           SKY/WX    TMP DP  RH WIND       PRES   REMARKS
SAVANNAH ARPT  PTCLDY    44  24  45 SE6       30.37R
6HR MIN TEMP:  44; 6HR MAX TEMP:  55;

HUNTER AAF     CLEAR     41  28  60 E2        30.35R
6HR MIN TEMP:  41; 6HR MAX TEMP:  54;

FORT STEWART   CLEAR     44  29  55 SE5       30.35R
6HR MIN TEMP:  44; 6HR MAX TEMP:  57;

STATESBORO     CLEAR     39  28  64 CALM      30.34R
SYLVANIA       CLEAR     42  34  73 CALM      30.35R
CLAXTON        FAIR      43  32  65 SE3       30.34S

...CSRA...CENTRAL AND FAR SOUTHEAST GEORGIA...

CITY           SKY/WX    TMP DP  RH WIND       PRES   REMARKS
THOMSON        CLOUDY    50  30  46 CALM      30.36S
AUGUSTA-BUSH   MOCLDY    48  19  31 S3        30.33R
6HR MIN TEMP:  47; 6HR MAX TEMP:  57;

AUGUSTA-DANIEL MOCLDY    52  17  25 S3        30.33R
SWAINSBORO     FAIR      45  19  36 CALM      30.33R
VIDALIA        CLEAR     46  27  46 CALM      30.32S
EASTMAN        FAIR      46  32  58 CALM      30.33S
HAZLEHURST     FAIR      47  30  51 CALM      30.31R
ALMA           PTCLDY    44  33  65 E6        30.31R
6HR MIN TEMP:  42; 6HR MAX TEMP:  60;

WAYCROSS       PTCLDY    55  36  48 SE8       30.32R
JESUP          FAIR      46  36  66 CALM      30.35R
BAXLEY         FAIR      50  32  50 E5        30.32R
BRUNSWICK      CLEAR     43  34  70 CALM      30.36S
SAINT SIMONS   CLEAR     47  36  65 NE6       30.35S
6HR MIN TEMP:  47; 6HR MAX TEMP:  54;


$$

SCZ027-028-034-036>038-045-046-048>050-GAZ119-141-010100-
...LAKE AND SUPPLEMENTAL COASTAL OBSERVATIONS...

STATION/POSITION TIME  TEMP    WIND        PRES    WAVE   SWELL
                       AIR SEA DIR/SP/G            HT/PER HT/PER/DIR
                 (UTC) (F)     (DEG/KT/KT) (MB)    (FT/S) (FT/S/D)
UPR LAKE MARION  NOT AVBL
WINYAH BAY       2245   45     180/  3     1026.0
LAKE MURRAY      2300   49      CALM  /  1 1026.1S
ACE BASIN NERRS  NOT AVBL
FORT PULASKI     2300   46 52  110/  4/  5 1028.5R
SAPELO ISLAND    2300   47        CALM     1028.0S

$$

ANZ835-935-AMZ111-154-330-350-352-354-370-450-454-472-010100-
...C-MAN AND BUOY OBSERVATIONS...

STATION/POSITION TIME  TEMP    WIND        PRES    WAVE   SWELL
                       AIR SEA DIR/SP/G            HT/PER HT/PER/DIR
                 (UTC) (F)     (DEG/KT/KT) (MB)    (FT/S) (FT/S/D)
BUOY 41004       2350   51 69   50/  4/  8 1027.8R   4/11   3/11
BUOY 41008       2350   51 54   60/  6/ 10 1027.7S   3/ 7   3/ 70/ 7
FOLLY BEACH CMAN 2300   47     170/  3/  4 1028.3R
CAPERS NEARSHORE 2300   46     160/  4/  6   N/A
FRIPP NEARSHORE  2300   48     150/  6/  8 1027.0R


STATION/POSITION TIME  TEMP    WIND        PRES    WAVE   SWELL
                       AIR SEA DIR/SP/G            HT/PER HT/PER/DIR
                 (UTC) (F)     (DEG/KT/KT) (MB)    (FT/S) (FT/S/D)
5E ST. MARYS GA  2321      56                N/A     4/ 7
FRYING PAN BUOY  2350   45 63   CALM  /  2 1028.9R   3/ 9   3/ 80/ 9
BUOY 41025       2350   42 71  290/ 14/ 19 1027.1R   5/ 9   3/ 30/ 9
CAPE LOOKOUT NC  2300   41     200/  3/  3 1027.0R
BUOY 41002       2350   54 69  330/ 14/ 21 1026.7R  10/10   8/10
BUOY 41010       2320   62 73   50/ 12/ 16 1025.9R
ST AUGUSTINE FL  0000   56      20/ 15/ 16 1026.8F


$$



USA.gov is the U.S. government's official web portal to all federal, state and local government web resources and services.